GFSSW_sfc_rhum_231.txt.gz
RH
80 81 81 82 82 82 82 84 84 85 86 86 87 90 90 90 83 28 14 23 24 49 46 10 9 10 12 13 15 16 19 24 23 24 26 24 26 26 24 28 32 34 35 34 29
81 80 81 81 81 81 82 82 85 85 86 86 88 89 90 91 23 11 47 62 57 54 11 9 10 11 11 12 14 14 19 21 15 15 21 22 24 26 27 30 36 38 35 33 30
80 79 79 80 80 81 81 82 83 85 86 87 87 89 89 71 16 11 65 60 59 47 10 8 8 10 11 11 14 13 19 16 17 18 17 23 25 22 26 25 33 41 41 34 31
78 79 79 79 80 80 80 81 83 84 85 87 86 88 87 21 16 10 57 62 58 17 10 8 9 11 11 13 12 15 14 14 16 18 18 22 24 25 25 26 26 32 33 31 32
79 79 79 79 79 80 80 82 83 84 85 86 85 88 30 13 9 9 41 42 12 10 9 9 10 11 13 10 11 13 13 13 14 16 16 19 24 25 28 24 27 30 30 29 28
80 80 79 79 80 80 81 82 83 84 85 85 83 90 24 12 6 7 7 7 8 10 9 8 9 9 10 10 10 10 12 11 12 13 15 19 24 25 28 24 29 30 29 26 26
80 81 80 80 80 81 80 82 84 85 85 83 81 39 11 8 5 6 6 7 8 8 9 8 8 9 9 10 8 9 12 12 12 13 14 17 24 27 27 26 30 28 26 25 25
80 79 79 80 79 80 81 83 85 85 84 82 80 25 10 3 4 5 6 7 6 7 8 8 7 8 9 9 8 10 11 16 12 12 13 17 25 29 27 27 27 27 25 26 26
81 82 80 79 80 82 86 84 84 82 81 75 35 15 7 15 3 4 6 7 7 7 9 8 8 9 8 9 9 10 18 14 14 12 12 16 20 24 24 24 23 26 26 26 27
86 79 85 79 80 85 86 86 72 74 55 22 14 14 7 4 3 5 6 6 7 9 10 11 10 10 8 9 20 13 12 12 13 12 12 13 17 20 23 22 23 23 24 27 27
86 87 86 79 81 86 62 27 20 20 16 7 6 6 5 5 6 6 6 7 7 10 14 11 12 11 9 12 10 9 10 12 10 9 11 13 15 20 20 20 23 24 24 24 25
88 88 86 80 82 84 55 17 11 12 11 6 5 4 6 5 6 6 6 7 9 13 12 14 12 11 9 9 10 10 10 11 10 9 10 13 13 15 20 18 20 23 23 22 22
90 90 88 81 82 66 18 11 11 11 12 6 4 6 6 6 6 7 6 6 9 11 11 13 9 9 10 9 10 10 9 11 9 9 8 12 14 14 13 17 17 18 19 20 21
91 89 86 82 70 16 15 10 11 12 15 9 7 7 7 5 6 4 5 5 8 10 10 10 8 10 10 10 9 10 8 8 9 10 11 8 18 18 16 18 18 17 18 18 21
90 89 84 96 38 14 11 10 12 14 17 8 6 5 5 6 4 4 3 5 8 7 6 7 6 9 10 10 8 9 6 7 8 10 9 9 12 18 16 19 19 18 18 16 18
92 90 86 56 34 16 14 13 13 17 17 8 7 7 7 7 4 4 6 6 6 6 6 8 5 6 8 7 8 7 7 8 8 8 11 8 8 24 26 20 20 19 18 17 17
94 91 80 33 15 13 14 16 14 14 8 8 7 6 6 6 7 6 8 8 9 11 10 10 9 7 8 8 7 7 7 10 12 11 11 9 10 50 47 22 20 25 22 19 17
94 87 72 31 17 18 17 17 20 8 8 5 5 5 6 6 7 7 7 7 6 6 7 10 11 8 7 8 8 8 6 9 22 17 29 14 16 50 27 23 23 23 21 17 17
89 41 25 17 22 19 18 16 13 10 7 4 6 6 6 6 7 8 8 7 6 6 10 10 10 7 6 6 7 8 9 6 8 16 22 21 18 22 23 24 25 26 25 22 18
39 19 16 15 17 18 18 20 12 11 10 6 9 7 9 8 9 9 9 7 7 5 5 9 12 8 8 7 7 7 7 8 8 29 25 36 62 37 35 31 29 31 32 33 33
38 18 16 14 16 18 15 11 12 9 10 9 7 7 8 8 8 9 9 8 7 7 8 8 17 12 9 9 8 7 9 8 11 17 21 45 48 43 46 33 30 31 32 33 32
25 16 14 15 20 13 12 12 30 9 10 10 10 6 8 8 9 9 10 9 9 9 11 9 11 15 9 8 8 8 10 10 11 17 14 18 20 38 29 26 30 34 33 33 33
24 16 14 15 18 12 12 12 9 10 11 10 10 8 7 9 12 10 11 11 10 10 13 10 12 60 28 10 9 10 10 10 9 9 16 15 34 20 27 32 34 37 37 36 34
22 16 16 17 15 14 13 12 11 10 12 10 10 11 10 10 10 11 11 11 10 10 49 25 10 18 55 60 33 13 12 10 10 11 12 11 23 22 30 36 35 38 38 37 36
23 14 12 16 14 12 13 13 13 14 12 12 14 12 12 14 12 13 11 12 10 27 15 10 14 14 26 37 21 12 12 12 13 13 14 12 11 15 23 28 33 34 36 38 36
29 24 13 14 12 12 24 15 15 14 14 13 14 11 12 16 14 14 12 13 14 13 14 10 18 16 18 12 12 13 12 11 10 10 11 11 12 8 10 19 30 35 38 38 36
26 24 25 27 12 12 12 13 13 16 14 13 11 11 13 13 10 9 8 8 10 12 13 13 13 18 20 13 14 16 12 11 10 9 10 14 24 24 19 22 27 32 35 37 37

GFSSW_sfc_rhum_234.txt.gz
RH
80 80 80 81 81 82 82 82 83 85 85 86 89 90 90 91 81 18 17 23 25 54 54 11 10 9 10 12 14 14 32 25 23 26 25 23 24 22 22 30 30 33 32 29 28
78 80 79 80 81 82 82 83 83 84 85 86 89 90 90 91 26 12 38 58 54 54 11 10 10 10 13 11 14 16 24 20 15 17 20 20 21 27 57 30 33 41 31 28 27
81 78 78 79 80 80 82 82 83 84 85 85 88 89 90 75 17 12 56 56 58 45 12 11 9 10 12 14 16 16 23 19 21 18 18 24 21 33 39 38 34 44 40 31 28
79 79 78 79 80 80 82 82 83 84 85 85 86 89 89 27 17 10 56 51 54 17 10 10 9 11 14 17 12 15 15 16 16 18 18 29 46 23 24 34 29 32 33 30 28
80 79 79 79 80 81 82 82 84 84 85 84 85 87 32 14 12 9 55 44 12 10 11 10 10 12 14 12 11 14 13 13 14 15 15 17 22 24 26 26 26 30 30 30 27
80 80 80 80 80 81 82 84 84 85 85 84 83 90 27 14 7 6 8 8 9 10 10 9 9 10 11 10 12 10 11 12 12 13 16 18 32 23 26 24 27 27 28 27 26
80 80 80 80 79 80 82 83 84 84 84 83 81 43 13 11 6 5 6 8 8 9 9 8 8 9 9 10 8 9 13 12 12 13 22 24 31 28 26 24 26 24 25 27 23
78 79 80 79 80 81 82 84 84 84 83 82 79 31 13 5 5 5 6 8 7 8 8 8 8 9 9 10 8 10 11 18 12 13 24 26 37 28 24 25 24 24 24 25 24
86 78 79 79 82 84 86 85 83 81 80 76 39 20 8 13 4 4 5 8 9 8 8 8 9 10 9 10 9 10 19 17 14 12 14 17 28 26 22 22 24 23 22 26 26
88 86 79 82 84 86 86 86 66 76 56 27 18 15 10 5 3 3 5 7 9 10 10 11 11 11 8 10 15 15 16 12 15 12 12 18 21 24 22 22 22 25 23 25 25
88 88 80 82 84 87 66 28 21 22 20 9 7 6 4 3 2 4 6 8 8 9 13 12 13 13 17 11 12 12 11 11 11 9 11 14 20 22 21 21 22 25 24 25 23
88 89 88 82 85 86 61 22 11 10 13 12 7 4 4 5 6 6 6 10 10 12 11 14 14 14 12 10 10 10 10 10 10 8 10 13 16 19 19 18 20 35 31 22 22
90 90 89 86 85 71 24 12 8 8 12 9 5 4 4 5 5 6 7 9 10 12 12 14 15 10 12 10 10 10 9 12 11 9 8 11 14 24 18 15 18 19 46 62 27
90 90 90 85 76 19 17 11 9 9 19 9 4 4 4 5 6 4 6 7 8 9 10 11 11 11 11 11 8 10 10 8 9 10 12 8 16 22 14 18 17 18 48 45 31
91 91 91 96 51 18 9 7 8 11 28 6 4 4 5 6 5 5 5 6 7 8 8 10 9 10 10 10 8 11 8 7 8 9 10 10 11 20 17 16 18 16 20 64 46
92 92 90 58 41 22 12 10 12 18 23 6 6 7 6 5 4 4 5 5 5 6 6 6 4 5 7 8 8 7 8 8 8 8 12 9 10 21 31 38 41 16 16 34 24
94 94 83 41 17 10 10 14 16 18 8 7 8 6 6 7 4 4 5 6 8 9 8 6 8 5 5 8 8 8 8 12 14 12 12 13 17 29 36 39 36 29 18 16 21
95 90 71 35 18 14 14 18 24 7 8 5 5 5 6 6 6 5 7 8 7 6 7 9 11 7 6 9 9 8 6 9 22 21 24 19 27 32 30 35 35 24 17 16 15
95 44 32 22 23 18 19 21 17 10 7 5 4 6 6 5 6 6 7 7 6 5 9 9 10 6 6 6 7 8 10 6 8 7 15 25 68 52 30 31 23 21 19 18 16
49 24 17 12 14 18 21 24 10 8 8 4 6 5 6 6 7 8 8 7 6 5 5 8 12 7 7 6 6 7 6 9 8 20 25 48 42 60 76 85 67 23 21 19 20
40 24 13 11 13 17 20 15 10 8 9 6 5 6 5 7 7 8 8 7 6 6 5 6 9 14 11 9 9 8 8 9 8 11 22 46 27 59 71 74 88 45 31 31 31
25 26 13 12 19 14 13 10 19 8 8 9 9 5 6 6 7 8 9 8 6 7 8 7 10 16 16 13 8 6 7 8 11 23 16 32 31 44 68 75 84 55 35 33 32
31 17 11 12 17 11 10 9 10 8 8 9 9 8 5 7 10 8 13 8 7 9 14 11 16 40 43 20 18 20 17 8 8 10 23 19 39 47 55 59 74 40 41 44 42
32 17 15 14 14 15 13 11 11 8 9 8 8 8 8 8 7 25 26 9 8 10 53 24 13 26 63 58 41 34 20 14 9 12 13 12 26 75 81 87 82 42 39 41 42
26 22 12 16 14 16 13 12 10 10 11 9 11 10 9 14 10 11 15 10 9 27 14 10 21 29 26 34 33 34 18 16 13 13 16 15 13 36 48 71 83 38 37 38 39
33 31 22 12 9 13 23 16 11 11 11 11 13 10 15 42 33 38 18 13 13 12 13 10 17 28 28 25 26 25 14 11 11 12 12 10 11 17 15 34 46 44 41 40 40
28 26 28 29 10 9 12 13 12 19 11 10 13 24 31 32 28 31 28 34 11 13 13 12 12 23 24 18 20 22 17 12 11 10 9 12 21 24 22 20 34 41 42 43 38

GFSSW_sfc_rhum_237.txt.gz
RH
80 79 81 81 81 82 83 84 85 85 86 86 88 90 91 91 86 34 25 25 29 57 59 15 14 14 13 16 20 21 40 44 42 35 38 27 31 39 34 42 40 37 41 38 43
82 81 80 81 82 82 82 84 84 85 86 86 88 89 90 90 50 22 27 54 55 53 12 15 17 14 17 16 22 24 40 28 22 24 30 38 40 42 47 49 40 39 35 34 41
81 81 80 81 81 82 83 84 85 85 86 86 87 89 90 88 34 15 55 55 58 45 16 15 15 15 15 25 20 23 34 24 23 24 26 32 36 32 50 55 47 44 39 35 42
81 81 81 81 82 82 83 84 85 85 86 86 86 89 90 56 23 13 58 60 64 25 14 14 16 17 28 22 20 25 20 20 26 26 26 27 32 37 41 45 37 36 34 35 44
81 81 81 82 82 83 83 85 86 86 86 85 85 88 64 29 20 11 61 57 29 15 14 16 16 20 24 18 18 18 21 18 19 21 29 26 33 40 42 37 36 34 33 36 36
80 81 81 81 81 82 84 86 87 86 85 84 83 88 63 27 11 10 17 13 15 13 14 14 13 11 18 17 16 15 16 15 22 26 24 34 36 34 36 35 36 35 37 37 39
79 79 81 80 81 82 84 87 85 85 84 83 81 54 33 17 10 9 8 10 11 12 14 11 12 14 14 14 12 12 18 16 22 28 35 29 44 39 35 33 35 36 35 33 35
83 83 78 80 81 84 86 87 85 84 82 80 78 56 33 10 9 9 7 8 10 11 12 11 12 14 16 13 12 15 18 27 27 27 30 36 53 39 34 31 34 32 32 31 35
82 88 79 80 85 87 88 87 84 81 80 79 71 56 23 13 10 6 6 8 10 11 11 9 14 17 16 18 20 18 26 23 23 28 28 36 48 34 32 30 31 32 33 33 33
81 88 89 80 85 88 88 87 77 82 62 35 28 30 21 14 6 5 6 6 9 13 14 14 19 23 21 19 24 26 23 19 22 22 30 35 39 32 30 29 31 32 32 35 37
80 88 84 81 85 89 78 55 44 44 36 22 18 18 8 11 9 4 4 6 9 14 20 17 25 26 21 18 14 15 18 19 18 14 18 32 37 33 31 32 31 56 46 40 36
81 88 86 82 88 88 88 48 23 15 21 21 13 10 7 6 6 4 5 11 15 18 15 20 24 18 15 15 15 16 16 16 15 12 14 29 30 31 28 32 42 43 45 46 50
86 85 86 85 87 89 52 25 14 14 22 15 15 13 8 6 8 7 8 11 16 18 16 21 18 13 14 16 14 15 17 17 16 13 13 21 33 33 29 30 37 46 37 44 51
87 89 86 90 88 42 31 23 20 17 31 20 15 9 6 6 8 5 6 11 13 16 15 16 13 15 16 16 15 20 15 13 15 18 24 14 35 43 30 32 43 49 48 37 51
90 92 83 86 87 43 22 15 13 16 46 14 10 4 4 8 8 6 7 11 13 12 13 14 13 16 16 15 12 14 13 14 14 17 21 15 21 38 34 34 52 44 45 56 39
90 90 91 75 78 47 26 20 18 34 34 8 5 6 8 8 8 7 9 8 8 9 9 11 8 9 11 10 10 10 12 14 14 17 25 18 20 29 31 30 38 37 43 52 52
91 95 90 57 36 27 18 21 37 34 14 8 9 8 9 10 8 8 10 11 14 17 17 10 8 8 7 10 10 14 23 28 32 26 26 32 44 53 47 40 34 45 48 49 61
90 94 83 57 35 32 26 35 45 16 13 7 9 8 9 8 8 7 9 11 9 9 14 14 12 10 7 9 15 14 16 25 28 34 25 40 61 56 54 44 43 44 53 44 63
94 70 55 44 52 37 41 42 33 20 10 8 8 9 10 7 8 7 9 10 9 9 15 16 15 8 8 9 14 16 19 12 13 17 25 66 57 49 45 39 48 52 46 57 52
84 46 36 24 28 31 45 45 24 12 10 11 9 9 12 9 9 10 10 8 8 7 8 11 22 13 8 9 9 26 12 17 21 34 40 58 68 58 57 39 48 49 47 46 49
65 47 24 18 20 37 39 30 18 13 11 12 7 9 8 10 9 11 12 8 6 7 8 29 13 17 15 19 27 26 18 18 17 22 39 53 52 61 71 67 58 58 45 46 68
44 44 15 15 34 33 26 20 24 12 10 11 13 14 8 8 10 11 12 11 7 8 9 18 32 41 32 23 20 25 32 27 31 25 34 41 86 53 70 64 66 81 80 79 75
56 37 17 15 34 26 20 13 11 10 10 12 12 12 9 10 17 15 18 10 9 18 26 18 36 59 48 24 24 35 31 27 21 26 35 46 70 58 75 66 78 84 81 80 90
61 47 30 23 21 20 22 20 12 10 12 10 14 11 14 17 24 23 19 11 10 16 52 28 30 40 54 44 45 32 24 28 27 32 27 57 69 71 68 71 74 80 89 92 74
52 63 38 33 23 20 19 21 20 17 12 13 18 13 32 40 25 34 21 18 12 35 23 24 41 38 36 30 30 29 28 28 32 26 31 44 69 53 65 62 75 80 78 78 58
69 77 61 42 32 19 25 24 21 20 19 22 25 41 32 38 42 48 37 43 42 25 24 18 42 49 41 32 31 26 25 24 24 23 21 30 43 48 52 69 78 70 68 79 86
52 57 53 51 32 24 20 24 24 34 32 29 27 45 57 40 34 37 41 50 38 44 39 24 36 44 48 40 36 42 29 28 27 22 16 37 42 42 59 71 81 71 66 81 81

GFSSW_sfc_rhum_240.txt.gz
RH
80 81 82 82 83 84 84 85 86 86 86 87 88 90 90 92 86 44 21 27 34 66 60 18 17 17 18 22 23 34 46 56 45 48 45 43 54 56 40 44 42 43 48 53 63
80 82 82 82 83 83 84 85 86 86 87 87 88 90 90 91 63 32 30 53 70 61 15 16 19 19 22 19 26 31 44 38 32 34 40 45 52 54 50 46 45 51 50 57 62
81 80 82 83 83 83 84 85 86 87 87 87 87 90 91 90 30 18 54 62 62 53 21 19 19 19 22 24 25 30 38 28 28 30 34 42 46 40 53 55 45 62 59 56 60
81 81 81 82 83 83 84 85 86 87 87 87 86 89 90 71 20 14 56 63 66 40 17 15 19 23 25 27 22 29 26 26 31 28 29 38 43 49 48 44 37 48 51 53 58
79 79 80 80 82 83 84 86 86 87 86 86 85 87 62 32 24 14 56 58 34 22 17 19 20 25 28 24 22 26 25 26 27 25 30 37 44 51 49 40 36 40 46 53 55
80 83 79 80 81 83 84 87 86 86 85 84 83 87 56 29 13 11 16 14 19 18 16 18 19 15 19 18 22 20 24 28 28 28 35 46 51 47 46 40 38 37 48 48 50
80 86 85 80 81 83 84 87 86 85 85 83 82 63 49 14 12 11 11 12 11 14 16 14 15 17 20 19 15 15 33 32 33 34 35 36 55 54 45 40 41 41 41 41 46
80 82 87 82 81 85 88 88 86 84 82 80 78 70 28 14 16 11 10 7 8 12 14 13 15 19 19 18 15 17 26 45 36 34 31 42 60 51 45 43 45 41 39 42 46
80 82 88 83 82 87 89 87 84 81 79 79 80 62 28 23 13 10 10 8 8 10 12 10 16 22 20 23 24 22 29 31 39 32 32 44 55 46 42 40 43 43 41 40 46
80 82 84 81 83 88 90 88 82 80 64 47 35 34 22 12 11 8 8 7 8 11 14 18 23 27 27 28 33 28 28 24 35 36 36 45 46 38 37 37 40 41 40 42 46
80 81 84 82 83 91 93 67 36 41 46 17 18 22 12 14 13 7 7 7 8 14 20 18 26 30 26 24 21 19 23 26 23 32 39 44 46 39 37 36 38 43 44 44 42
80 81 85 82 84 91 97 57 34 22 27 23 20 18 11 11 11 9 5 7 12 17 22 22 26 22 19 19 18 22 21 23 23 26 30 45 44 38 36 35 39 41 54 50 49
90 82 86 84 88 95 80 43 27 20 34 20 22 20 18 12 12 8 5 8 18 22 21 25 18 16 18 21 24 22 21 18 19 17 20 39 48 46 38 36 41 39 41 51 50
87 87 90 85 88 73 54 37 38 23 38 26 21 17 12 10 9 7 6 11 17 19 20 21 16 15 20 21 22 25 14 16 22 21 23 22 44 51 46 48 38 36 47 52 55
88 89 83 88 96 68 36 35 30 24 48 22 20 11 10 9 10 9 7 13 16 16 18 18 17 18 20 20 18 18 14 15 20 18 22 21 34 49 54 55 42 48 53 57 58
84 86 89 88 94 80 52 43 27 35 40 18 11 8 8 8 8 9 9 13 13 16 15 13 12 13 14 13 15 13 17 18 21 22 24 19 20 44 51 50 45 57 56 55 56
87 90 90 73 59 52 42 30 38 45 21 11 8 8 9 12 10 11 12 15 17 25 17 12 11 9 10 11 9 15 21 29 29 27 26 43 42 45 57 47 44 48 55 58 64
90 93 92 78 78 59 40 37 61 26 21 12 10 11 12 12 12 11 14 15 13 15 18 19 14 11 9 9 10 16 19 27 29 37 28 39 54 46 50 49 45 40 53 52 56
94 98 95 73 74 60 42 55 44 31 18 14 12 14 14 11 9 11 13 14 12 12 14 18 15 10 10 10 10 13 20 18 21 28 43 65 49 47 41 54 52 50 56 66 72
98 88 63 48 50 45 50 63 37 22 18 17 23 12 13 13 11 11 10 9 8 9 10 13 18 16 12 11 19 16 13 17 25 32 50 60 58 54 46 51 59 61 74 73 75
91 59 45 42 35 44 57 55 28 19 15 18 19 19 11 11 11 10 9 8 6 9 11 13 18 15 21 28 29 29 34 31 22 32 48 57 55 59 69 77 87 80 74 85 75
90 58 33 26 41 52 46 32 30 23 14 16 14 15 12 10 13 10 10 9 7 7 11 19 36 35 29 27 24 26 35 37 35 32 39 54 53 63 76 75 81 82 84 91 87
84 67 28 29 44 48 38 21 18 15 13 16 15 12 14 11 12 12 16 14 16 17 20 24 44 42 35 33 28 31 36 39 38 38 34 52 45 76 72 77 72 75 85 83 85
89 81 45 35 40 47 40 28 26 15 17 14 17 24 27 33 35 21 17 15 14 16 54 39 45 35 41 39 40 36 30 38 39 41 44 46 50 69 67 76 80 78 80 80 90
86 81 70 67 36 35 35 27 24 28 24 28 37 35 33 40 38 36 37 27 23 43 25 31 34 42 42 38 38 36 30 27 35 38 43 37 57 57 63 74 86 73 67 71 83
84 90 88 70 63 59 49 29 22 24 36 40 40 36 35 42 43 36 39 43 50 31 33 35 42 50 40 35 36 38 32 30 27 21 44 53 55 51 66 83 82 81 74 72 79
87 82 66 79 66 70 41 27 30 35 34 34 39 47 38 40 37 44 51 52 44 37 37 37 47 50 54 43 38 36 30 31 29 28 37 55 52 50 67 73 80 85 76 88 82

GFSSW_sfc_rhum_246.txt.gz
RH
81 81 82 82 84 85 85 85 86 86 87 88 88 90 92 92 90 66 22 24 32 74 57 34 48 40 36 40 39 50 60 67 58 71 65 56 60 50 46 52 52 54 61 65 74
81 81 81 82 83 84 85 85 86 86 87 88 88 89 91 92 71 28 34 66 70 71 20 20 21 27 38 34 33 45 61 50 41 50 63 57 56 57 58 59 72 69 64 66 76
79 80 81 81 82 83 84 84 86 86 87 88 88 89 91 94 24 17 70 72 73 57 20 20 21 23 29 32 32 41 47 38 37 43 52 61 62 56 61 69 73 81 83 82 82
79 80 82 82 82 83 86 84 86 87 87 87 86 89 92 72 22 18 72 76 72 26 18 18 24 30 31 34 28 38 33 35 48 52 56 61 59 60 55 56 58 69 78 80 86
79 80 82 82 82 83 84 85 87 88 87 86 86 87 66 22 17 16 47 32 33 21 20 23 23 25 27 31 29 34 38 38 48 49 53 50 62 61 57 55 62 69 74 80 82
78 80 82 82 82 82 84 86 88 88 87 85 84 88 58 19 11 13 13 10 12 17 19 22 21 24 25 25 28 31 37 37 43 47 48 57 63 57 59 58 66 74 79 79 75
79 80 82 82 82 82 84 86 88 87 86 84 83 73 43 12 11 16 18 12 12 13 13 15 21 24 23 23 20 35 41 42 50 53 58 53 64 65 60 60 69 73 75 75 73
79 80 81 82 82 83 85 88 88 86 84 82 81 74 19 10 17 20 20 10 9 12 13 14 19 22 24 22 27 39 43 52 46 52 56 49 68 64 60 63 70 67 67 68 69
80 80 80 83 82 84 86 90 87 83 81 80 76 58 20 22 16 14 13 8 10 11 13 11 20 25 23 29 41 37 57 55 52 48 55 57 69 59 54 60 67 65 64 62 63
80 83 86 83 83 84 88 88 79 80 76 65 47 30 15 13 16 12 13 10 11 10 13 19 26 28 29 31 42 47 52 42 54 47 47 52 58 60 58 52 60 63 61 61 59
79 82 83 83 83 84 90 62 33 42 63 18 21 12 10 11 12 13 10 8 11 15 19 22 25 29 28 27 27 29 33 41 41 40 46 48 59 62 58 55 55 56 56 56 56
82 82 83 82 85 85 94 39 36 37 28 24 25 21 20 17 16 14 10 9 12 17 26 24 27 23 23 25 29 30 29 30 29 38 44 51 56 59 57 57 54 55 62 53 50
83 81 82 83 88 90 79 40 42 48 32 23 27 26 22 18 19 17 9 11 13 19 24 27 24 19 21 26 30 32 31 27 29 43 42 54 60 60 58 55 53 51 52 56 51
88 84 83 87 84 94 68 61 58 41 36 26 30 19 19 16 16 12 9 8 19 16 23 24 20 19 21 24 28 30 25 23 43 47 57 51 56 59 58 59 54 49 53 53 57
84 83 85 91 95 74 52 68 62 29 28 20 26 19 20 14 12 11 8 14 18 21 23 24 19 20 20 16 26 25 24 25 38 31 55 49 41 38 67 60 53 47 50 60 60
85 85 91 90 86 80 76 69 33 30 40 27 18 20 15 14 11 12 11 12 14 19 20 22 17 16 15 14 21 21 18 22 27 26 31 37 46 40 67 59 48 51 51 57 66
86 91 92 78 56 81 72 34 30 35 24 22 20 14 14 13 13 13 15 18 19 25 29 17 16 13 15 16 16 21 22 31 32 29 29 36 27 32 56 56 55 52 55 59 68
91 94 90 83 94 84 43 33 57 25 31 24 14 13 11 13 12 15 16 18 20 19 22 20 20 13 12 15 12 19 19 27 32 32 27 42 44 41 55 60 64 52 58 63 68
93 95 98 92 89 87 35 48 35 32 28 23 22 13 15 16 15 17 16 16 16 16 23 21 17 13 12 12 12 19 24 28 30 39 33 39 52 44 59 62 68 69 68 65 75
99 91 71 83 80 51 39 54 46 36 24 23 27 20 21 18 16 18 18 14 14 14 16 17 19 15 17 19 25 17 17 20 26 34 37 46 63 52 58 63 69 73 70 72 78
95 56 56 76 68 42 46 53 43 34 25 23 25 14 22 23 16 16 16 14 13 14 14 18 18 16 22 33 34 29 36 29 28 32 34 47 44 54 59 65 75 74 73 68 78
94 61 61 50 42 68 53 48 38 24 20 18 24 17 18 20 20 16 13 12 12 13 14 22 19 21 16 32 33 34 43 31 29 33 58 48 42 65 81 75 79 73 74 87 92
80 77 52 40 37 45 49 36 27 25 26 24 21 20 22 23 24 17 14 10 12 14 15 20 22 26 27 32 32 40 44 44 42 50 55 47 40 74 88 88 82 89 82 92 93
87 72 53 49 55 49 54 42 36 25 25 22 20 26 29 28 25 25 16 25 12 10 51 41 43 23 24 35 36 42 37 39 40 42 48 50 37 70 87 88 81 84 87 90 87
93 90 75 58 53 52 48 41 35 35 27 42 45 42 52 48 47 37 36 33 30 55 39 29 36 51 58 42 40 39 34 39 38 39 34 33 38 42 79 83 81 84 90 84 85
94 93 94 86 79 82 78 65 43 37 31 46 50 47 54 51 42 40 39 46 35 37 42 45 47 52 52 45 41 40 37 37 37 41 42 53 46 62 75 78 78 83 87 83 90
76 91 91 81 81 83 70 52 48 35 36 42 48 55 49 49 49 50 62 49 43 35 44 50 49 47 58 54 39 34 34 38 38 39 45 50 45 73 80 74 79 85 85 88 86